Location: Blankensee
(53.5126°N, 14.3055°E)
Time: 18:39:09
(UTC+00:00)

Lacrosse 4 Rocket - Pass Details

Date: 08 August 2020
Orbit: 544 x 615 km, 68.0° (Epoch: 20 September)

Event Time Altitude Azimuth Distance (km) Brightness Sun altitude
Exits shadow 00:17:19 27° 255° (WSW) 1,124 2.6 -18.9°
Maximum altitude 00:19:17 48° 315° (NW) 754 2.1 -18.8°
Drops below altitude 10° 00:23:21 10° 31° (NNE) 1,867 5.2 -18.6°
Sets 00:25:37 0° 37° (NE) 2,756 6.3 -18.5°
